Location: Gellin
(53.4498°N, 14.3207°E)
Time: 23:27:32
(UTC+00:00)

Cosmos 962 Rocket - Pass Details

Date: 03 March 2021
Orbit: 951 x 999 km, 82.9° (Epoch: 12 April)

Event Time Altitude Azimuth Distance (km) Brightness Sun altitude
Rises 18:09:44 0° 177° (S) 3,646 7.4 -13.4°
Reaches altitude 10° 18:12:13 10° 175° (S) 2,710 6.7 -13.8°
Maximum altitude 18:18:21 65° 95° (E) 1,072 4.5 -14.7°
Drops below altitude 10° 18:24:37 10° 15° (NNE) 2,761 6.8 -15.6°
Sets 18:27:10 0° 13° (NNE) 3,720 7.5 -16.0°
